This is the latest recevied weather packets stored in our database for station/object KD8OZS. If no packets are shown the sender has not sent any weather packets the latest 10 day(s).
| Time | Temp. | Humidity | Pressure | Rain* | Wind** | Luminosity | Snow |
|---|---|---|---|---|---|---|---|
| 1787874195 | 22.22° C | 87% | 1007.4 hPa | 0 mm | - | 14 W/m² | - |
| 1787873890 | 22.22° C | 85% | 1007.5 hPa | 0 mm | - | 18 W/m² | - |
| 1787873589 | 22.78° C | 84% | 1007.2 hPa | 0 mm | - | 19 W/m² | - |
| 1787873285 | 23.33° C | 83% | 1007.5 hPa | 0 mm | - | 23 W/m² | - |
| 1787872983 | 23.89° C | 82% | 1007.3 hPa | 0 mm | - | 25 W/m² | - |
| 1787872679 | 24.44° C | 79% | 1007.2 hPa | 0 mm | - | 26 W/m² | - |
| 1787872375 | 24.44° C | 77% | 1007.1 hPa | 0 mm | - | 29 W/m² | - |
| 1787872075 | 25° C | 76% | 1007.2 hPa | 0 mm | - | 31 W/m² | - |
| 1787871769 | 25° C | 74% | 1007.1 hPa | 0 mm | - | 33 W/m² | - |
| 1787871465 | 25.56° C | 71% | 1007.3 hPa | 0 mm | - | 34 W/m² | - |
| 1787871160 | 25.56° C | 70% | 1007.3 hPa | 0 mm | - | 41 W/m² | - |
| 1787870859 | 25.56° C | 71% | 1007.2 hPa | 0 mm | - | 43 W/m² | - |
| 1787870555 | 25.56° C | 70% | 1007.2 hPa | 0 mm | - | 45 W/m² | - |
| 1787870250 | 25.56° C | 72% | 1007.3 hPa | 0 mm | - | 46 W/m² | - |
| 1787869945 | 25.56° C | 72% | 1007.2 hPa | 0 mm | - | 52 W/m² | - |
| 1787869644 | 25.56° C | 72% | 1007 hPa | 0 mm | - | 47 W/m² | - |
| 1787869339 | 25.56° C | 69% | 1007.2 hPa | 0 mm | - | 50 W/m² | - |
| 1787869038 | 26.11° C | 68% | 1007 hPa | 0 mm | - | 53 W/m² | - |
| 1787868737 | 26.11° C | 67% | 1007.1 hPa | 0 mm | - | 56 W/m² | - |
| 1787868436 | 26.11° C | 67% | 1007 hPa | 0 mm | - | 62 W/m² | - |
| 1787868135 | 25.56° C | 68% | 1007.1 hPa | 0 mm | - | 69 W/m² | - |
| 1787867831 | 25.56° C | 73% | 1007 hPa | 0 mm | - | 77 W/m² | - |
| 1787867526 | 26.11° C | 71% | 1007 hPa | 0 mm | - | 65 W/m² | - |
| 1787867221 | 26.67° C | 68% | 1006.9 hPa | 0 mm | - | 71 W/m² | - |
| 1787866916 | 27.22° C | 68% | 1006.9 hPa | 0 mm | - | 89 W/m² | - |
* Rain latest hour (hover to see other rain measurements)
** Current wind speed in m/s (hover to see current wind gust speed)